Content
SEND FEEDBACK

Daily
Averages
Monthly
Summary
United Kingdom

LONDON, ENGLAND


Home > Europe > United Kingdom > England
Elevation: 203 feet     Latitude: 51 09N     Longitude: 000 11W

WEATHER
 
SELECT A DAY
Number of Records: 292,972;   Date Range: 7/1/96 - 7/29/14
 
SHARE

PRINT THIS DATA

[ ← Previous Day ]
WEATHER ALMANAC - JANUARY 15, 2013
[ Next Day → ]
[ °C ]   °F
Weather ElementAverageHighLow
Temperature33.6 °F35.6 °F (12:50 am)26.6 °F (11:20 pm)
Dewpoint28.9 °F30.2 °F (12:50 am)24.8 °F (8:20 pm)
Humidity83.4 %93 % (9:20 pm)75 % (11:50 am)
Barometer29.79 in29.86 in (12:20 pm)29.62 in (12:50 am)
Wind Speed8.3 mph18.4 mph (2:50 am)
Wind Gust26.5 mph (9:50 am)
Weather ElementAverage
Visibility5.9 mi
Wind DirectionWSW (248.9 °)

Weather ElementTotal
Precipitation---
Heating Degree Days33.9 (Base 65)
Averaged from 46 records on January 15, 2013
WEATHER CONDITIONS BREAKOUT
WIND DIRECTION BREAKOUT
WEATHER BY HOUR - JANUARY 15, 2013
[ °C ]   °F
Local TimeTemperatureDewpointHumidityBarometerVisibilityWind DirectionWind SpeedGust SpeedPrecipitationEventsConditions
12:50 AM35.6 °F30.2 °F81 %29.62 in6.2 miWNW (300°)12.7 mphScattered Clouds
1:20 AM35.6 °F30.2 °F81 %29.62 in6.2 miWNW (300°)13.8 mphMostly Cloudy
1:50 AM35.6 °F30.2 °F81 %29.62 in6.2 miWNW (300°)16.1 mphMostly Cloudy
2:20 AM35.6 °F30.2 °F81 %29.62 in6.2 miNW (310°)15.0 mphMostly Cloudy
2:50 AM35.6 °F30.2 °F81 %29.62 in6.2 miNW (320°)18.4 mphRain-SnowLight Rain
3:20 AM35.6 °F30.2 °F81 %29.65 in6.2 miNNW (330°)17.3 mphMostly Cloudy
4:20 AM35.6 °F30.2 °F81 %29.68 in6.2 miNNW (340°)13.8 mphMostly Cloudy
4:50 AM35.6 °F30.2 °F81 %29.68 in6.2 miNorth (350°)11.5 mphMostly Cloudy
5:20 AM35.6 °F30.2 °F81 %29.71 in6.2 miNNW (340°)12.7 mphMostly Cloudy
5:50 AM33.8 °F30.2 °F87 %29.71 in6.2 miNNW (330°)12.7 mphMostly Cloudy
6:20 AM33.8 °F30.2 °F87 %29.71 in6.2 miNorth (350°)11.5 mphMostly Cloudy
6:50 AM33.8 °F30.2 °F87 %29.74 in6.2 miNorth (350°)9.2 mphSnowLight Snow
7:20 AM33.8 °F30.2 °F87 %29.74 in6.2 miNorth (350°)9.2 mphMostly Cloudy
7:50 AM33.8 °F28.4 °F81 %29.74 in6.2 miNNW (340°)8.1 mphScattered Clouds
8:20 AM33.8 °F28.4 °F81 %29.77 in6.2 miNorth (350°)8.1 mphScattered Clouds
8:50 AM33.8 °F30.2 °F87 %29.80 in6.2 miNNW (330°)9.2 mphPartly Cloudy
9:20 AM33.8 °F30.2 °F87 %29.80 in6.2 miNNW (330°)11.5 mphScattered Clouds
9:50 AM33.8 °F30.2 °F87 %29.83 in6.2 miNNW (340°)12.7 mph26.5 mphMostly Cloudy
10:20 AM33.8 °F30.2 °F87 %29.83 in6.2 miNNW (330°)12.7 mphMostly Cloudy
10:50 AM35.6 °F30.2 °F81 %29.83 in6.2 miNNW (340°)10.4 mph24.2 mphMostly Cloudy
11:20 AM35.6 °F30.2 °F81 %29.83 in6.2 miNorth (350°)6.9 mphMostly Cloudy
11:50 AM35.6 °F28.4 °F75 %29.83 in6.2 miNNW (340°)9.2 mphMostly Cloudy
12:20 PM35.6 °F28.4 °F75 %29.86 in6.2 miVariable6.9 mph18.4 mphMostly Cloudy
12:50 PM35.6 °F30.2 °F81 %29.83 in6.2 miNNW (330°)9.2 mphMostly Cloudy
1:20 PM35.6 °F30.2 °F81 %29.83 in6.2 miNNW (330°)9.2 mphMostly Cloudy
1:50 PM35.6 °F30.2 °F81 %29.83 in6.2 miNW (320°)9.2 mphScattered Clouds
2:20 PM35.6 °F30.2 °F81 %29.83 in6.2 miNW (320°)8.1 mphMostly Cloudy
2:50 PM35.6 °F30.2 °F81 %29.83 in6.2 miVariable8.1 mphScattered Clouds
3:20 PM35.6 °F30.2 °F81 %29.86 in6.2 miNW (320°)8.1 mphScattered Clouds
3:50 PM35.6 °F28.4 °F75 %29.86 in6.2 miNNW (340°)6.9 mphMostly Cloudy
4:20 PM35.6 °F28.4 °F75 %29.86 in6.2 miNNW (330°)5.8 mphMostly Cloudy
4:50 PM35.6 °F28.4 °F75 %29.86 in6.2 miNW (310°)4.6 mphMostly Cloudy
5:20 PM35.6 °F28.4 °F75 %29.86 in6.2 miWNW (300°)4.6 mphMostly Cloudy
5:50 PM33.8 °F28.4 °F81 %29.86 in6.2 miWest (280°)5.8 mphMostly Cloudy
6:20 PM33.8 °F28.4 °F81 %29.86 in5.0 miNNW (330°)4.6 mphMostly Cloudy
6:50 PM32.0 °F28.4 °F87 %29.86 in6.2 miVariable3.5 mphScattered Clouds
7:20 PM32.0 °F28.4 °F87 %29.86 inVariable2.3 mphClear
7:50 PM30.2 °F26.6 °F86 %29.86 in5.6 miEast (80°)3.5 mph
8:20 PM28.4 °F24.8 °F86 %29.86 inNE (50°)4.6 mphClear
8:50 PM30.2 °F26.6 °F86 %29.86 in6.2 miNNE (20°)4.6 mphPartly Cloudy
9:20 PM28.4 °F26.6 °F93 %29.86 inVariable2.3 mphClear
9:50 PM28.4 °F26.6 °F93 %29.86 in5.6 miSW (220°)2.3 mph
10:20 PM28.4 °F26.6 °F93 %29.86 in3.7 miWSW (250°)3.5 mph
10:50 PM28.4 °F26.6 °F93 %29.86 in4.3 miCalm
11:20 PM26.6 °F24.8 °F93 %29.86 in3.1 miCalmHaze
11:50 PM26.6 °F24.8 °F93 %29.86 in3.1 miCalmHaze
Hourly data recorded from EGKK, located miles away from London, England







STORIES FROM OUR PARTNERS